"FRM_SS2_TRK_CMP_EDR_3030.DAT   ",2006-05-21T02:25:25.32 ,"1/0096258321.61568",    0,    0,   38179,"SS2","B4","B3","B4","B3","PISd",1,2,0,1,"B3", 0,15,   8, 0,    0,"TRK","NO  REC","OK ","OK ",    000938.941,    0047.364,    -055.974,    0016.343,    0058.407
"FRM_SS2_TRK_CMP_EDR_3030.DAT   ",2006-05-21T02:25:29.90 ,"1/0096258326.34104",    0,    1,   38179,"SS2","B4","B3","B4","B3","PISd",1,2,0,1,"B3", 0,15,   8, 0,    0,"TRK","NO  REC","OK ","OK ",    000933.178,    0047.143,    -055.964,    0016.345,    0058.412
"FRM_SS2_TRK_CMP_EDR_3030.DAT   ",2006-05-21T02:25:34.48 ,"1/0096258331.06124",    0,    2,   38179,"SS2","B4","B3","B4","B3","PISd",1,2,0,1,"B3", 0,15,   8, 0,    0,"TRK","NO  REC","OK ","OK ",    000927.441,    0046.923,    -055.955,    0016.347,    0058.417
"FRM_SS2_TRK_CMP_EDR_3030.DAT   ",2006-05-21T02:25:39.05 ,"1/0096258335.43681",    0,    3,   38179,"SS2","B4","B3","B4","B3","PISd",1,2,0,1,"B3", 0,15,   8, 0,    0,"TRK","NO  REC","OK ","OK ",    000921.721,    0046.701,    -055.945,    0016.349,    0058.423
"FRM_SS2_TRK_CMP_EDR_3030.DAT   ",2006-05-21T02:25:43.61 ,"1/0096258340.15187",    0,    4,   38179,"SS2","B4","B3","B4","B3","PISd",1,2,0,1,"B3", 0,15,   8, 0,    0,"TRK","NO  REC","OK ","OK ",    000916.027,    0046.480,    -055.936,    0016.351,    0058.430
"FRM_SS2_TRK_CMP_EDR_3030.DAT   ",2006-05-21T02:25:48.17 ,"1/0096258344.51713",    0,    5,   38179,"SS2","B4","B3","B4","B3","PISd",1,2,0,1,"B3", 0,15,   8, 0,    0,"TRK","NO  REC","OK ","OK ",    000910.359,    0046.258,    -055.927,    0016.352,    0058.437
"FRM_SS2_TRK_CMP_EDR_3030.DAT   ",2006-05-21T02:25:52.72 ,"1/0096258349.22189",    0,    6,   38179,"SS2","B4","B3","B4","B3","PISd",1,2,0,1,"B3", 0,15,   8, 0,    0,"TRK","NO  REC","OK ","OK ",    000904.718,    0046.036,    -055.918,    0016.354,    0058.445
"FRM_SS2_TRK_CMP_EDR_3030.DAT   ",2006-05-21T02:25:57.26 ,"1/0096258353.57686",    0,    7,   38179,"SS2","B4","B3","B4","B3","PISd",1,2,0,1,"B3", 0,15,   8, 0,    0,"TRK","NO  REC","OK ","OK ",    000899.103,    0045.814,    -055.910,    0016.356,    0058.453
"FRM_SS2_TRK_CMP_EDR_3030.DAT   ",2006-05-21T02:26:01.80 ,"1/0096258358.27131",    0,    8,   38179,"SS2","B4","B3","B4","B3","PISd",1,2,0,1,"B3", 0,15,   8, 0,    0,"TRK","NO  REC","OK ","OK ",    000893.515,    0045.591,    -055.901,    0016.358,    0058.462
"FRM_SS2_TRK_CMP_EDR_3030.DAT   ",2006-05-21T02:26:06.32 ,"1/0096258362.61598",    0,    9,   38179,"SS2","B4","B3","B4","B3","PISd",1,2,0,1,"B3", 0,15,   8, 0,    0,"TRK","NO  REC","OK ","OK ",    000887.953,    0045.369,    -055.893,    0016.360,    0058.471
"FRM_SS2_TRK_CMP_EDR_3030.DAT   ",2006-05-21T02:26:10.84 ,"1/0096258367.30014",    0,   10,   38179,"SS2","B4","B3","B4","B3","PISd",1,2,0,1,"B3", 0,15,   8, 0,    0,"TRK","NO  REC","OK ","OK ",    000882.417,    0045.146,    -055.884,    0016.361,    0058.481
"FRM_SS2_TRK_CMP_EDR_3030.DAT   ",2006-05-21T02:26:15.35 ,"1/0096258371.63451",    0,   11,   38179,"SS2","B4","B3","B4","B3","PISd",1,2,0,1,"B3", 0,15,   8, 0,    0,"TRK","NO  REC","OK ","OK ",    000876.909,    0044.923,    -055.876,    0016.363,    0058.491
"FRM_SS2_TRK_CMP_EDR_3030.DAT   ",2006-05-21T02:26:19.85 ,"1/0096258376.30837",    0,   12,   38179,"SS2","B4","B3","B4","B3","PISd",1,2,0,1,"B3", 0,15,   8, 0,    0,"TRK","NO  REC","OK ","OK ",    000871.426,    0044.700,    -055.869,    0016.365,    0058.502
"FRM_SS2_TRK_CMP_EDR_3030.DAT   ",2006-05-21T02:26:24.35 ,"1/0096258380.63759",    0,   13,   38179,"SS2","B4","B3","B4","B3","PISd",1,2,0,1,"B3", 0,15,   8, 0,    0,"TRK","NO  REC","OK ","OK ",    000865.961,    0044.476,    -055.861,    0016.367,    0058.513
"FRM_SS2_TRK_CMP_EDR_3030.DAT   ",2006-05-21T02:26:28.85 ,"1/0096258385.30630",    0,   14,   38179,"SS2","B4","B3","B4","B3","PISd",1,2,0,1,"B3", 0,15,   8, 0,    0,"TRK","NO  REC","OK ","OK ",    000860.523,    0044.252,    -055.853,    0016.368,    0058.525
"FRM_SS2_TRK_CMP_EDR_3030.DAT   ",2006-05-21T02:26:33.34 ,"1/0096258389.62522",    0,   15,   38179,"SS2","B4","B3","B4","B3","PISd",1,2,0,1,"B3", 0,15,   8, 0,    0,"TRK","NO  REC","OK ","OK ",    000855.112,    0044.028,    -055.846,    0016.370,    0058.538
"FRM_SS2_TRK_CMP_EDR_3030.DAT   ",2006-05-21T02:26:37.81 ,"1/0096258394.28363",    0,   16,   38179,"SS2","B4","B3","B4","B3","PISd",1,2,0,1,"B3", 0,15,   8, 0,    0,"TRK","NO  REC","OK ","OK ",    000849.727,    0043.804,    -055.838,    0016.372,    0058.551
"FRM_SS2_TRK_CMP_EDR_3030.DAT   ",2006-05-21T02:26:42.29 ,"1/0096258398.59226",    0,   17,   38179,"SS2","B4","B3","B4","B3","PISd",1,2,0,1,"B3", 0,15,   8, 0,    0,"TRK","NO  REC","OK ","OK ",    000844.369,    0043.580,    -055.831,    0016.374,    0058.564
"FRM_SS2_TRK_CMP_EDR_3030.DAT   ",2006-05-21T02:26:46.75 ,"1/0096258403.24037",    0,   18,   38179,"SS2","B4","B3","B4","B3","PISd",1,2,0,1,"B3", 0,15,   8, 0,    0,"TRK","NO  REC","OK ","OK ",    000839.038,    0043.355,    -055.824,    0016.375,    0058.579
"FRM_SS2_TRK_CMP_EDR_3030.DAT   ",2006-05-21T02:26:51.20 ,"1/0096258407.53869",    0,   19,   38179,"SS2","B4","B3","B4","B3","PISd",1,2,0,1,"B3", 0,15,   8, 0,    0,"TRK","NO  REC","OK ","OK ",    000833.735,    0043.130,    -055.817,    0016.377,    0058.593
"FRM_SS2_TRK_CMP_EDR_3030.DAT   ",2006-05-21T02:26:55.65 ,"1/0096258412.17650",    0,   20,   38179,"SS2","B4","B3","B4","B3","PISd",1,2,0,1,"B3", 0,15,   8, 0,    0,"TRK","NO  REC","OK ","OK ",    000828.458,    0042.905,    -055.811,    0016.379,    0058.609
"FRM_SS2_TRK_CMP_EDR_3030.DAT   ",2006-05-21T02:27:00.10 ,"1/0096258416.46968",    0,   21,   38179,"SS2","B4","B3","B4","B3","PISd",1,2,0,1,"B3", 0,15,   8, 0,    0,"TRK","NO  REC","OK ","OK ",    000823.199,    0042.680,    -055.804,    0016.380,    0058.625
"FRM_SS2_TRK_CMP_EDR_3030.DAT   ",2006-05-21T02:27:04.54 ,"1/0096258421.10234",    0,   22,   38179,"SS2","B4","B3","B4","B3","PISd",1,2,0,1,"B3", 0,15,   8, 0,    0,"TRK","NO  REC","OK ","OK ",    000817.967,    0042.454,    -055.797,    0016.382,    0058.641
"FRM_SS2_TRK_CMP_EDR_3030.DAT   ",2006-05-21T02:27:08.97 ,"1/0096258425.38522",    0,   23,   38179,"SS2","B4","B3","B4","B3","PISd",1,2,0,1,"B3", 0,15,   8, 0,    0,"TRK","NO  REC","OK ","OK ",    000812.762,    0042.228,    -055.791,    0016.383,    0058.658
"FRM_SS2_TRK_CMP_EDR_3030.DAT   ",2006-05-21T02:27:13.39 ,"1/0096258430.00758",    0,   24,   38179,"SS2","B4","B3","B4","B3","PISd",1,2,0,1,"B3", 0,15,   8, 0,    0,"TRK","NO  REC","OK ","OK ",    000807.585,    0042.002,    -055.785,    0016.385,    0058.676
"FRM_SS2_TRK_CMP_EDR_3030.DAT   ",2006-05-21T02:27:17.81 ,"1/0096258434.28016",    0,   25,   38179,"SS2","B4","B3","B4","B3","PISd",1,2,0,1,"B3", 0,15,   8, 0,    0,"TRK","NO  REC","OK ","OK ",    000802.434,    0041.776,    -055.779,    0016.387,    0058.694
"FRM_SS2_TRK_CMP_EDR_3030.DAT   ",2006-05-21T02:27:22.22 ,"1/0096258438.54758",    0,   26,   38179,"SS2","B4","B3","B4","B3","PISd",1,2,0,1,"B3", 0,15,   8, 0,    0,"TRK","NO  REC","OK ","OK ",    000797.311,    0041.550,    -055.773,    0016.388,    0058.712
"FRM_SS2_TRK_CMP_EDR_3030.DAT   ",2006-05-21T02:27:26.63 ,"1/0096258443.15965",    0,   27,   38179,"SS2","B4","B3","B4","B3","PISd",1,2,0,1,"B3", 0,15,   8, 0,    0,"TRK","NO  REC","OK ","OK ",    000792.206,    0041.323,    -055.767,    0016.390,    0058.732
"FRM_SS2_TRK_CMP_EDR_3030.DAT   ",2006-05-21T02:27:31.03 ,"1/0096258447.42192",    0,   28,   38179,"SS2","B4","B3","B4","B3","PISd",1,2,0,1,"B3", 0,15,   8, 0,    0,"TRK","NO  REC","OK ","OK ",    000787.129,    0041.096,    -055.761,    0016.391,    0058.751
"FRM_SS2_TRK_CMP_EDR_3030.DAT   ",2006-05-21T02:27:35.42 ,"1/0096258452.02369",    0,   29,   38179,"SS2","B4","B3","B4","B3","PISd",1,2,0,1,"B3", 0,15,   8, 0,    0,"TRK","NO  REC","OK ","OK ",    000782.079,    0040.869,    -055.755,    0016.393,    0058.772
"FRM_SS2_TRK_CMP_EDR_3030.DAT   ",2006-05-21T02:27:39.80 ,"1/0096258456.27567",    0,   30,   38179,"SS2","B4","B3","B4","B3","PISd",1,2,0,1,"B3", 0,15,   8, 0,    0,"TRK","NO  REC","OK ","OK ",    000777.056,    0040.642,    -055.750,    0016.394,    0058.793
"FRM_SS2_TRK_CMP_EDR_3030.DAT   ",2006-05-21T02:27:44.18 ,"1/0096258460.52250",    0,   31,   38179,"SS2","B4","B3","B4","B3","PISd",1,2,0,1,"B3", 0,15,   8, 0,    0,"TRK","NO  REC","OK ","OK ",    000772.061,    0040.414,    -055.744,    0016.396,    0058.814
"FRM_SS2_TRK_CMP_EDR_3030.DAT   ",2006-05-21T02:27:48.55 ,"1/0096258465.10882",    0,   32,   38179,"SS2","B4","B3","B4","B3","PISd",1,2,0,1,"B3", 0,15,   8, 0,    0,"TRK","NO  REC","OK ","OK ",    000767.094,    0040.187,    -055.739,    0016.398,    0058.836
"FRM_SS2_TRK_CMP_EDR_3030.DAT   ",2006-05-21T02:27:52.92 ,"1/0096258469.35049",    0,   33,   38179,"SS2","B4","B3","B4","B3","PISd",1,2,0,1,"B3", 0,15,   8, 0,    0,"TRK","NO  REC","OK ","OK ",    000762.145,    0039.959,    -055.734,    0016.399,    0058.859
"FRM_SS2_TRK_CMP_EDR_3030.DAT   ",2006-05-21T02:27:57.28 ,"1/0096258473.58702",    0,   34,   38179,"SS2","B4","B3","B4","B3","PISd",1,2,0,1,"B3", 0,15,   8, 0,    0,"TRK","NO  REC","OK ","OK ",    000757.224,    0039.731,    -055.728,    0016.401,    0058.882
"FRM_SS2_TRK_CMP_EDR_3030.DAT   ",2006-05-21T02:28:01.63 ,"1/0096258478.16304",    0,   35,   38179,"SS2","B4","B3","B4","B3","PISd",1,2,0,1,"B3", 0,15,   8, 0,    0,"TRK","NO  REC","OK ","OK ",    000752.330,    0039.502,    -055.723,    0016.402,    0058.906
"FRM_SS2_TRK_CMP_EDR_3030.DAT   ",2006-05-21T02:28:05.98 ,"1/0096258482.38927",    0,   36,   38179,"SS2","B4","B3","B4","B3","PISd",1,2,0,1,"B3", 0,15,   8, 0,    0,"TRK","NO  REC","OK ","OK ",    000747.464,    0039.274,    -055.719,    0016.404,    0058.930
"FRM_SS2_TRK_CMP_EDR_3030.DAT   ",2006-05-21T02:28:10.31 ,"1/0096258486.61035",    0,   37,   38179,"SS2","B4","B3","B4","B3","PISd",1,2,0,1,"B3", 0,15,   8, 0,    0,"TRK","NO  REC","OK ","OK ",    000742.626,    0039.045,    -055.714,    0016.405,    0058.955
"FRM_SS2_TRK_CMP_EDR_3030.DAT   ",2006-05-21T02:28:14.65 ,"1/0096258491.17607",    0,   38,   38179,"SS2","B4","B3","B4","B3","PISd",1,2,0,1,"B3", 0,15,   8, 0,    0,"TRK","NO  REC","OK ","OK ",    000737.807,    0038.816,    -055.709,    0016.407,    0058.981
"FRM_SS2_TRK_CMP_EDR_3030.DAT   ",2006-05-21T02:28:18.98 ,"1/0096258495.39200",    0,   39,   38179,"SS2","B4","B3","B4","B3","PISd",1,2,0,1,"B3", 0,15,   8, 0,    0,"TRK","NO  REC","OK ","OK ",    000733.015,    0038.587,    -055.704,    0016.408,    0059.007
"FRM_SS2_TRK_CMP_EDR_3030.DAT   ",2006-05-21T02:28:23.30 ,"1/0096258499.60279",    0,   40,   38179,"SS2","B4","B3","B4","B3","PISd",1,2,0,1,"B3", 0,15,   8, 0,    0,"TRK","NO  REC","OK ","OK ",    000728.252,    0038.358,    -055.700,    0016.410,    0059.033
"FRM_SS2_TRK_CMP_EDR_3030.DAT   ",2006-05-21T02:28:27.62 ,"1/0096258504.15306",    0,   41,   38179,"SS2","B4","B3","B4","B3","PISd",1,2,0,1,"B3", 0,15,   8, 0,    0,"TRK","NO  REC","OK ","OK ",    000723.516,    0038.128,    -055.695,    0016.411,    0059.061
"FRM_SS2_TRK_CMP_EDR_3030.DAT   ",2006-05-21T02:28:31.93 ,"1/0096258508.35869",    0,   42,   38179,"SS2","B4","B3","B4","B3","PISd",1,2,0,1,"B3", 0,15,   8, 0,    0,"TRK","NO  REC","OK ","OK ",    000718.800,    0037.899,    -055.691,    0016.413,    0059.089
"FRM_SS2_TRK_CMP_EDR_3030.DAT   ",2006-05-21T02:28:36.24 ,"1/0096258512.55917",    0,   43,   38179,"SS2","B4","B3","B4","B3","PISd",1,2,0,1,"B3", 0,15,   8, 0,    0,"TRK","NO  REC","OK ","OK ",    000714.111,    0037.669,    -055.687,    0016.414,    0059.117
"FRM_SS2_TRK_CMP_EDR_3030.DAT   ",2006-05-21T02:28:40.53 ,"1/0096258517.09914",    0,   44,   38179,"SS2","B4","B3","B4","B3","PISd",1,2,0,1,"B3", 0,15,   8, 0,    0,"TRK","NO  REC","OK ","OK ",    000709.451,    0037.438,    -055.683,    0016.415,    0059.146
"FRM_SS2_TRK_CMP_EDR_3030.DAT   ",2006-05-21T02:28:44.82 ,"1/0096258521.28933",    0,   45,   38179,"SS2","B4","B3","B4","B3","PISd",1,2,0,1,"B3", 0,15,   8, 0,    0,"TRK","NO  REC","OK ","OK ",    000704.819,    0037.208,    -055.679,    0016.417,    0059.175
"FRM_SS2_TRK_CMP_EDR_3030.DAT   ",2006-05-21T02:28:49.11 ,"1/0096258525.47436",    0,   46,   38179,"SS2","B4","B3","B4","B3","PISd",1,2,0,1,"B3", 0,15,   8, 0,    0,"TRK","NO  REC","OK ","OK ",    000700.214,    0036.978,    -055.675,    0016.418,    0059.205
"FRM_SS2_TRK_CMP_EDR_3030.DAT   ",2006-05-21T02:28:53.39 ,"1/0096258530.00404",    0,   47,   38179,"SS2","B4","B3","B4","B3","PISd",1,2,0,1,"B3", 0,15,   8, 0,    0,"TRK","NO  REC","OK ","OK ",    000695.629,    0036.747,    -055.671,    0016.420,    0059.236
"FRM_SS2_TRK_CMP_EDR_3030.DAT   ",2006-05-21T02:28:57.66 ,"1/0096258534.18392",    0,   48,   38179,"SS2","B4","B3","B4","B3","PISd",1,2,0,1,"B3", 0,15,   8, 0,    0,"TRK","NO  REC","OK ","OK ",    000691.073,    0036.516,    -055.667,    0016.421,    0059.267
"FRM_SS2_TRK_CMP_EDR_3030.DAT   ",2006-05-21T02:29:01.93 ,"1/0096258538.35866",    0,   49,   38179,"SS2","B4","B3","B4","B3","PISd",1,2,0,1,"B3", 0,15,   8, 0,    0,"TRK","NO  REC","OK ","OK ",    000686.544,    0036.285,    -055.663,    0016.422,    0059.299
"FRM_SS2_TRK_CMP_EDR_3030.DAT   ",2006-05-21T02:29:06.20 ,"1/0096258542.53339",    0,   50,   38179,"SS2","B4","B3","B4","B3","PISd",1,2,0,1,"B3", 0,15,   8, 0,    0,"TRK","NO  REC","OK ","OK ",    000682.036,    0036.053,    -055.660,    0016.424,    0059.332
"FRM_SS2_TRK_CMP_EDR_3030.DAT   ",2006-05-21T02:29:10.45 ,"1/0096258547.04762",    0,   51,   38179,"SS2","B4","B3","B4","B3","PISd",1,2,0,1,"B3", 0,15,   8, 0,    0,"TRK","NO  REC","OK ","OK ",    000677.555,    0035.822,    -055.656,    0016.425,    0059.365
"FRM_SS2_TRK_CMP_EDR_3030.DAT   ",2006-05-21T02:29:14.71 ,"1/0096258551.21205",    0,   52,   38179,"SS2","B4","B3","B4","B3","PISd",1,2,0,1,"B3", 0,15,   8, 0,    0,"TRK","NO  REC","OK ","OK ",    000673.103,    0035.590,    -055.653,    0016.427,    0059.398
"FRM_SS2_TRK_CMP_EDR_3030.DAT   ",2006-05-21T02:29:18.95 ,"1/0096258555.37134",    0,   53,   38179,"SS2","B4","B3","B4","B3","PISd",1,2,0,1,"B3", 0,15,   8, 0,    0,"TRK","NO  REC","OK ","OK ",    000668.679,    0035.358,    -055.649,    0016.428,    0059.432
"FRM_SS2_TRK_CMP_EDR_3030.DAT   ",2006-05-21T02:29:23.19 ,"1/0096258559.53062",    0,   54,   38179,"SS2","B4","B3","B4","B3","PISd",1,2,0,1,"B3", 0,15,   8, 0,    0,"TRK","NO  REC","OK ","OK ",    000664.276,    0035.126,    -055.646,    0016.429,    0059.467
"FRM_SS2_TRK_CMP_EDR_3030.DAT   ",2006-05-21T02:29:27.43 ,"1/0096258564.02940",    0,   55,   38179,"SS2","B4","B3","B4","B3","PISd",1,2,0,1,"B3", 0,15,   8, 0,    0,"TRK","NO  REC","OK ","OK ",    000659.900,    0034.894,    -055.643,    0016.431,    0059.503
"FRM_SS2_TRK_CMP_EDR_3030.DAT   ",2006-05-21T02:29:31.65 ,"1/0096258568.17839",    0,   56,   38179,"SS2","B4","B3","B4","B3","PISd",1,2,0,1,"B3", 0,15,   8, 0,    0,"TRK","NO  REC","OK ","OK ",    000655.553,    0034.661,    -055.640,    0016.432,    0059.538
"FRM_SS2_TRK_CMP_EDR_3030.DAT   ",2006-05-21T02:29:35.87 ,"1/0096258572.32223",    0,   57,   38179,"SS2","B4","B3","B4","B3","PISd",1,2,0,1,"B3", 0,15,   8, 0,    0,"TRK","NO  REC","OK ","OK ",    000651.234,    0034.429,    -055.637,    0016.433,    0059.575
"FRM_SS2_TRK_CMP_EDR_3030.DAT   ",2006-05-21T02:29:40.09 ,"1/0096258576.46607",    0,   58,   38179,"SS2","B4","B3","B4","B3","PISd",1,2,0,1,"B3", 0,15,   8, 0,    0,"TRK","NO  REC","OK ","OK ",    000646.936,    0034.196,    -055.634,    0016.435,    0059.612
"FRM_SS2_TRK_CMP_EDR_3030.DAT   ",2006-05-21T02:29:44.30 ,"1/0096258580.60475",    0,   59,   38179,"SS2","B4","B3","B4","B3","PISd",1,2,0,1,"B3", 0,15,   8, 0,    0,"TRK","NO  REC","OK ","OK ",    000642.666,    0033.963,    -055.631,    0016.436,    0059.650
"FRM_SS2_TRK_CMP_EDR_3030.DAT   ",2006-05-21T02:29:48.51 ,"1/0096258585.08293",    0,   60,   38179,"SS2","B4","B3","B4","B3","PISd",1,2,0,1,"B3", 0,15,   8, 0,    0,"TRK","NO  REC","OK ","OK ",    000638.425,    0033.730,    -055.628,    0016.438,    0059.688
"FRM_SS2_TRK_CMP_EDR_3030.DAT   ",2006-05-21T02:29:52.71 ,"1/0096258589.21647",    0,   61,   38179,"SS2","B4","B3","B4","B3","PISd",1,2,0,1,"B3", 0,15,   8, 0,    0,"TRK","NO  REC","OK ","OK ",    000634.204,    0033.496,    -055.625,    0016.439,    0059.727
"FRM_SS2_TRK_CMP_EDR_3030.DAT   ",2006-05-21T02:29:56.91 ,"1/0096258593.34486",    0,   62,   38179,"SS2","B4","B3","B4","B3","PISd",1,2,0,1,"B3", 0,15,   8, 0,    0,"TRK","NO  REC","OK ","OK ",    000630.012,    0033.263,    -055.623,    0016.440,    0059.766
"FRM_SS2_TRK_CMP_EDR_3030.DAT   ",2006-05-21T02:30:01.10 ,"1/0096258597.46810",    0,   63,   38179,"SS2","B4","B3","B4","B3","PISd",1,2,0,1,"B3", 0,15,   8, 0,    0,"TRK","NO  REC","OK ","OK ",    000625.848,    0033.029,    -055.620,    0016.441,    0059.806
"FRM_SS2_TRK_CMP_EDR_3030.DAT   ",2006-05-21T02:30:05.28 ,"1/0096258601.58619",    0,   64,   38179,"SS2","B4","B3","B4","B3","PISd",1,2,0,1,"B3", 0,15,   8, 0,    0,"TRK","NO  REC","OK ","OK ",    000621.713,    0032.795,    -055.617,    0016.443,    0059.847
"FRM_SS2_TRK_CMP_EDR_3030.DAT   ",2006-05-21T02:30:09.46 ,"1/0096258606.04892",    0,   65,   38179,"SS2","B4","B3","B4","B3","PISd",1,2,0,1,"B3", 0,15,   8, 0,    0,"TRK","NO  REC","OK ","OK ",    000617.598,    0032.561,    -055.615,    0016.444,    0059.888
"FRM_SS2_TRK_CMP_EDR_3030.DAT   ",2006-05-21T02:30:13.63 ,"1/0096258610.16186",    0,   66,   38179,"SS2","B4","B3","B4","B3","PISd",1,2,0,1,"B3", 0,15,   8, 0,    0,"TRK","NO  REC","OK ","OK ",    000613.513,    0032.327,    -055.612,    0016.445,    0059.929
"FRM_SS2_TRK_CMP_EDR_3030.DAT   ",2006-05-21T02:30:17.79 ,"1/0096258614.26965",    0,   67,   38179,"SS2","B4","B3","B4","B3","PISd",1,2,0,1,"B3", 0,15,   8, 0,    0,"TRK","NO  REC","OK ","OK ",    000609.455,    0032.093,    -055.610,    0016.447,    0059.972
"FRM_SS3_TRK_CMP_EDR_3030.DAT   ",2006-05-21T02:30:25.31 ,"1/0096258621.61020",    1,    0,   53485,"SS3","B4","B3","B4","B3","PISd",0,2,0,1,"B3", 0,15,   7, 0,    0,"TRK","NO  REC","OK ","OK ",    000602.183,    0031.669,    -055.606,    0016.449,    0060.050
"FRM_SS3_TRK_CMP_EDR_3030.DAT   ",2006-05-21T02:30:29.47 ,"1/0096258626.05748",    1,    1,   53485,"SS3","B4","B3","B4","B3","PISd",0,2,0,1,"B3", 0,15,   7, 0,    0,"TRK","NO  REC","OK ","OK ",    000598.192,    0031.434,    -055.604,    0016.450,    0060.094
"FRM_SS3_TRK_CMP_EDR_3030.DAT   ",2006-05-21T02:30:33.62 ,"1/0096258630.15497",    1,    2,   53485,"SS3","B4","B3","B4","B3","PISd",0,2,0,1,"B3", 0,15,   7, 0,    0,"TRK","NO  REC","OK ","OK ",    000594.231,    0031.199,    -055.602,    0016.451,    0060.138
"FRM_SS3_TRK_CMP_EDR_3030.DAT   ",2006-05-21T02:30:37.76 ,"1/0096258634.24732",    1,    3,   53485,"SS3","B4","B3","B4","B3","PISd",0,2,0,1,"B3", 0,15,   7, 0,    0,"TRK","NO  REC","OK ","OK ",    000590.298,    0030.963,    -055.600,    0016.453,    0060.183
"FRM_SS3_TRK_CMP_EDR_3030.DAT   ",2006-05-21T02:30:41.90 ,"1/0096258638.33966",    1,    4,   53485,"SS3","B4","B3","B4","B3","PISd",0,2,0,1,"B3", 0,15,   7, 0,    0,"TRK","NO  REC","OK ","OK ",    000586.386,    0030.728,    -055.598,    0016.454,    0060.229
"FRM_SS3_TRK_CMP_EDR_3030.DAT   ",2006-05-21T02:30:46.03 ,"1/0096258642.42685",    1,    5,   53485,"SS3","B4","B3","B4","B3","PISd",0,2,0,1,"B3", 0,15,   7, 0,    0,"TRK","NO  REC","OK ","OK ",    000582.503,    0030.492,    -055.596,    0016.455,    0060.275
"FRM_SS3_TRK_CMP_EDR_3030.DAT   ",2006-05-21T02:30:50.16 ,"1/0096258646.50890",    1,    6,   53485,"SS3","B4","B3","B4","B3","PISd",0,2,0,1,"B3", 0,15,   7, 0,    0,"TRK","NO  REC","OK ","OK ",    000578.649,    0030.257,    -055.594,    0016.456,    0060.322
"FRM_SS3_TRK_CMP_EDR_3030.DAT   ",2006-05-21T02:30:54.28 ,"1/0096258650.59094",    1,    7,   53485,"SS3","B4","B3","B4","B3","PISd",0,2,0,1,"B3", 0,15,   7, 0,    0,"TRK","NO  REC","OK ","OK ",    000574.817,    0030.021,    -055.592,    0016.458,    0060.369
"FRM_SS3_TRK_CMP_EDR_3030.DAT   ",2006-05-21T02:30:58.40 ,"1/0096258655.01248",    1,    8,   53485,"SS3","B4","B3","B4","B3","PISd",0,2,0,1,"B3", 0,15,   7, 0,    0,"TRK","NO  REC","OK ","OK ",    000571.013,    0029.785,    -055.590,    0016.459,    0060.417
"FRM_SS3_TRK_CMP_EDR_3030.DAT   ",2006-05-21T02:31:02.51 ,"1/0096258659.08422",    1,    9,   53485,"SS3","B4","B3","B4","B3","PISd",0,2,0,1,"B3", 0,15,   7, 0,    0,"TRK","NO  REC","OK ","OK ",    000567.238,    0029.549,    -055.588,    0016.460,    0060.466
"FRM_SS3_TRK_CMP_EDR_3030.DAT   ",2006-05-21T02:31:06.62 ,"1/0096258663.15597",    1,   10,   53485,"SS3","B4","B3","B4","B3","PISd",0,2,0,1,"B3", 0,15,   7, 0,    0,"TRK","NO  REC","OK ","OK ",    000563.485,    0029.312,    -055.587,    0016.461,    0060.515
"FRM_SS3_TRK_CMP_EDR_3030.DAT   ",2006-05-21T02:31:10.72 ,"1/0096258667.22256",    1,   11,   53485,"SS3","B4","B3","B4","B3","PISd",0,2,0,1,"B3", 0,15,   7, 0,    0,"TRK","NO  REC","OK ","OK ",    000559.761,    0029.076,    -055.585,    0016.462,    0060.564
"FRM_SS3_TRK_CMP_EDR_3030.DAT   ",2006-05-21T02:31:14.82 ,"1/0096258671.28401",    1,   12,   53485,"SS3","B4","B3","B4","B3","PISd",0,2,0,1,"B3", 0,15,   7, 0,    0,"TRK","NO  REC","OK ","OK ",    000556.065,    0028.839,    -055.583,    0016.464,    0060.615
"FRM_SS3_TRK_CMP_EDR_3030.DAT   ",2006-05-21T02:31:18.91 ,"1/0096258675.34545",    1,   13,   53485,"SS3","B4","B3","B4","B3","PISd",0,2,0,1,"B3", 0,15,   7, 0,    0,"TRK","NO  REC","OK ","OK ",    000552.391,    0028.602,    -055.582,    0016.465,    0060.665
"FRM_SS3_TRK_CMP_EDR_3030.DAT   ",2006-05-21T02:31:22.99 ,"1/0096258679.40175",    1,   14,   53485,"SS3","B4","B3","B4","B3","PISd",0,2,0,1,"B3", 0,15,   7, 0,    0,"TRK","NO  REC","OK ","OK ",    000548.747,    0028.365,    -055.580,    0016.466,    0060.717
"FRM_SS3_TRK_CMP_EDR_3030.DAT   ",2006-05-21T02:31:27.08 ,"1/0096258683.45805",    1,   15,   53485,"SS3","B4","B3","B4","B3","PISd",0,2,0,1,"B3", 0,15,   7, 0,    0,"TRK","NO  REC","OK ","OK ",    000545.124,    0028.128,    -055.579,    0016.468,    0060.769
"FRM_SS3_TRK_CMP_EDR_3030.DAT   ",2006-05-21T02:31:31.16 ,"1/0096258687.50919",    1,   16,   53485,"SS3","B4","B3","B4","B3","PISd",0,2,0,1,"B3", 0,15,   7, 0,    0,"TRK","NO  REC","OK ","OK ",    000541.530,    0027.891,    -055.578,    0016.469,    0060.821
"FRM_SS3_TRK_CMP_EDR_3030.DAT   ",2006-05-21T02:31:35.23 ,"1/0096258691.55519",    1,   17,   53485,"SS3","B4","B3","B4","B3","PISd",0,2,0,1,"B3", 0,15,   7, 0,    0,"TRK","NO  REC","OK ","OK ",    000537.965,    0027.653,    -055.576,    0016.470,    0060.874
"FRM_SS3_TRK_CMP_EDR_3030.DAT   ",2006-05-21T02:31:39.30 ,"1/0096258695.60119",    1,   18,   53485,"SS3","B4","B3","B4","B3","PISd",0,2,0,1,"B3", 0,15,   7, 0,    0,"TRK","NO  REC","OK ","OK ",    000534.422,    0027.416,    -055.575,    0016.471,    0060.928
"FRM_SS3_TRK_CMP_EDR_3030.DAT   ",2006-05-21T02:31:43.36 ,"1/0096258699.64204",    1,   19,   53485,"SS3","B4","B3","B4","B3","PISd",0,2,0,1,"B3", 0,15,   7, 0,    0,"TRK","NO  REC","OK ","OK ",    000530.909,    0027.178,    -055.574,    0016.472,    0060.982
"FRM_SS3_TRK_CMP_EDR_3030.DAT   ",2006-05-21T02:31:47.42 ,"1/0096258704.02753",    1,   20,   53485,"SS3","B4","B3","B4","B3","PISd",0,2,0,1,"B3", 0,15,   7, 0,    0,"TRK","NO  REC","OK ","OK ",    000527.417,    0026.940,    -055.573,    0016.473,    0061.037
"FRM_SS3_TRK_CMP_EDR_3030.DAT   ",2006-05-21T02:31:51.48 ,"1/0096258708.06322",    1,   21,   53485,"SS3","B4","B3","B4","B3","PISd",0,2,0,1,"B3", 0,15,   7, 0,    0,"TRK","NO  REC","OK ","OK ",    000523.955,    0026.702,    -055.572,    0016.474,    0061.092
"FRM_SS3_TRK_CMP_EDR_3030.DAT   ",2006-05-21T02:31:55.52 ,"1/0096258712.09377",    1,   22,   53485,"SS3","B4","B3","B4","B3","PISd",0,2,0,1,"B3", 0,15,   7, 0,    0,"TRK","NO  REC","OK ","OK ",    000520.521,    0026.464,    -055.570,    0016.476,    0061.148